GFSSGP_sfc_wetblb_000.txt.gz
Wetbulb
67.23 65.00 64.92 65.06 57.56 57.31 53.18 53.80 58.48 55.68 55.56 57.85 58.21 56.01 54.82 55.32 52.51 50.76 65.79 65.19 64.56 70.93 72.73 72.49 74.43 73.98 73.59 73.40 73.17 72.96 72.89 72.62 72.16 71.06 70.33 69.07 68.43 68.24 67.87 67.40 66.98 66.48 66.59 67.13 67.74 68.27 69.69 69.95 69.74
62.19 63.45 66.83 63.58 55.97 52.43 52.99 57.27 54.83 55.85 57.18 58.01 57.52 56.55 55.25 53.80 57.19 59.32 61.72 65.86 65.29 69.64 72.31 72.32 74.26 73.86 73.83 73.71 73.68 73.51 73.36 72.71 72.05 71.00 70.58 69.66 69.00 68.77 68.54 68.27 68.01 67.67 67.23 67.45 67.55 68.03 68.63 69.52 70.08
67.75 68.86 63.09 59.29 56.63 52.38 52.01 56.22 55.40 56.75 57.79 56.55 56.11 57.65 56.14 56.13 58.65 60.03 65.77 66.34 66.52 68.72 70.12 74.18 74.41 74.06 74.23 74.13 74.13 73.98 73.51 72.34 71.32 70.33 69.69 69.30 69.52 69.28 68.92 68.74 68.82 68.45 68.09 67.65 67.66 67.93 68.42 69.72 70.21
68.04 65.69 63.19 55.69 52.88 55.44 56.13 56.35 57.05 56.32 57.00 57.63 56.61 54.11 58.42 61.25 60.28 62.50 64.57 64.76 64.50 64.68 68.61 73.70 75.03 74.63 74.33 73.83 74.18 73.78 72.59 71.97 71.40 69.72 69.23 68.75 69.30 69.62 69.17 68.44 68.56 68.63 68.58 67.97 67.42 67.77 68.96 69.37 69.97
66.87 62.13 55.99 54.78 54.17 56.30 58.53 58.48 57.57 55.05 55.26 56.09 56.17 53.47 56.44 60.80 63.02 63.62 64.12 64.06 63.72 66.92 67.57 70.91 73.45 72.07 71.29 71.08 71.67 72.41 71.50 70.51 69.70 69.16 68.86 68.80 68.61 68.43 68.17 68.20 68.23 68.30 68.41 68.36 67.36 67.57 68.47 69.21 69.41
59.57 60.03 52.96 51.24 53.06 56.17 58.38 58.45 56.52 55.40 55.77 55.99 54.99 54.60 57.76 62.47 62.24 62.84 63.51 64.47 64.19 65.81 67.69 69.70 71.40 70.96 70.38 71.09 70.99 69.02 67.38 66.73 66.73 67.04 67.23 67.33 67.45 67.16 67.10 67.14 67.25 67.40 68.08 68.29 67.75 67.38 68.02 68.82 69.32
57.96 56.46 53.14 53.58 53.10 54.38 56.75 59.48 56.52 56.31 54.76 55.06 56.86 53.45 58.54 61.06 62.45 64.20 64.30 65.18 66.35 66.04 66.64 67.92 68.25 69.95 70.33 69.83 68.02 66.12 64.52 64.20 64.97 65.14 65.13 65.52 65.67 65.84 66.03 66.77 66.80 67.27 68.19 67.76 67.71 67.72 67.92 68.19 68.51
59.58 56.98 52.76 53.47 52.86 53.21 57.81 58.35 58.96 57.47 55.28 59.09 58.17 53.32 54.55 61.17 63.37 63.54 62.84 62.54 62.85 63.65 63.13 66.23 67.22 65.23 66.82 66.97 66.81 65.88 65.05 64.82 64.09 64.66 64.52 64.39 64.06 64.95 65.86 66.63 66.75 67.18 67.60 67.69 67.57 67.17 66.90 67.78 68.20
61.52 53.65 51.23 52.71 53.06 53.82 57.51 56.42 59.24 60.21 57.16 57.76 58.08 56.69 59.19 62.22 62.46 61.14 61.64 60.69 60.99 62.13 64.62 64.56 64.86 65.57 66.48 66.51 66.36 66.27 66.84 65.78 65.02 64.97 64.12 63.40 63.58 64.11 64.92 66.50 67.15 66.84 67.25 67.37 67.04 66.98 67.19 67.40 67.88
56.79 53.03 52.84 56.67 56.67 54.50 56.15 56.32 57.05 56.45 56.67 56.71 56.98 58.57 59.86 60.68 60.32 59.35 59.44 59.66 60.74 61.73 63.93 64.76 64.91 65.91 67.11 64.68 67.55 67.36 66.51 66.25 65.62 64.75 64.00 64.25 64.10 64.32 64.19 65.22 65.40 66.34 66.31 66.65 66.50 66.55 66.76 65.80 64.90
56.88 53.26 55.93 56.95 58.01 56.65 55.22 55.22 57.36 55.65 54.37 56.60 55.64 56.93 58.68 58.67 60.13 59.73 58.82 60.03 60.98 62.98 64.40 63.70 65.20 66.51 67.41 65.80 66.13 65.38 65.38 65.35 65.57 64.97 64.73 64.32 63.73 63.45 63.98 65.04 65.29 65.16 65.44 64.76 64.92 64.61 64.71 63.78 63.11
54.31 57.01 57.27 57.55 58.06 55.87 53.88 55.60 55.96 56.18 56.45 58.51 58.07 58.05 58.82 59.05 59.01 59.30 59.49 62.23 60.64 62.97 64.26 66.17 67.05 66.75 68.09 67.09 65.39 65.18 65.89 65.01 63.73 64.75 64.82 63.79 63.62 63.76 64.40 64.02 64.33 64.60 64.91 63.94 64.78 64.31 64.90 63.72 63.54
56.08 56.67 57.44 57.84 57.05 55.92 55.51 55.04 56.09 55.69 58.24 58.76 58.20 57.90 57.78 59.52 60.03 61.99 64.02 64.49 62.71 63.63 63.77 66.78 66.74 68.07 68.59 68.00 66.34 66.29 66.27 64.47 64.53 64.69 64.64 64.20 63.39 62.97 63.63 64.29 63.72 63.70 63.64 63.45 63.69 64.38 63.98 62.70 63.13
57.46 57.28 56.35 56.88 56.28 56.32 54.39 55.15 56.11 56.76 58.54 57.32 57.01 57.05 57.75 58.55 59.75 61.71 62.62 63.05 63.60 64.27 65.01 66.48 67.22 68.08 68.03 67.31 67.23 66.55 66.53 65.64 65.57 65.04 62.59 63.53 63.92 63.23 63.81 63.39 63.76 63.43 63.50 63.96 63.97 64.10 64.14 64.32 64.91
56.84 53.75 54.75 55.47 55.84 54.82 56.46 53.28 53.83 57.19 58.06 57.11 57.31 57.94 58.51 59.15 59.15 60.36 62.26 63.56 64.69 64.26 66.27 66.17 66.65 66.81 67.37 67.21 67.36 67.20 66.73 66.65 65.60 65.62 63.74 63.28 64.65 63.69 64.23 63.57 63.50 62.99 63.25 63.08 63.96 64.25 64.58 64.47 65.87
53.26 53.34 49.16 53.98 55.56 55.65 55.30 49.72 55.19 57.61 57.59 57.28 57.33 57.55 58.13 59.62 60.21 62.01 62.87 64.06 65.48 65.15 66.10 66.78 64.98 66.98 67.89 68.64 67.62 67.16 66.71 67.36 66.87 66.80 64.75 62.47 64.09 64.48 64.29 63.59 63.52 63.76 63.59 63.28 63.07 63.48 64.13 63.79 64.40
51.72 47.51 48.90 51.22 55.61 54.90 54.23 51.34 55.30 57.54 57.55 57.80 57.91 58.30 58.06 59.35 61.23 63.35 62.77 63.93 64.79 65.22 66.33 66.55 67.47 65.98 68.31 68.19 65.12 66.19 67.97 67.98 68.57 66.87 63.74 62.82 63.16 65.12 64.87 63.85 64.20 64.16 63.16 63.03 63.48 62.90 62.93 63.89 63.88
47.27 47.92 49.46 49.76 53.72 54.35 53.01 52.66 55.27 56.92 56.61 57.69 58.48 58.48 58.83 59.23 60.17 62.14 62.99 64.03 64.49 65.43 67.04 67.42 67.02 68.09 68.95 66.69 65.81 64.17 68.07 68.45 67.77 65.99 63.63 63.16 62.93 64.81 65.37 63.93 63.65 64.62 63.10 62.43 63.01 62.98 63.74 63.67 64.12
50.80 49.78 49.61 52.82 54.75 53.18 52.96 54.07 55.03 56.47 56.39 56.84 57.74 58.89 59.84 59.78 61.45 62.21 62.67 63.97 64.04 65.36 66.35 67.16 67.21 68.54 67.60 65.16 65.40 66.31 66.47 67.69 66.09 66.62 65.33 64.38 63.99 64.10 65.04 64.15 63.71 64.36 63.25 62.75 62.75 63.45 62.78 62.63 63.48
50.01 49.31 49.50 52.30 53.97 52.92 52.35 52.25 54.77 55.83 56.44 57.01 56.67 57.50 59.30 60.04 59.95 61.11 62.08 63.38 63.48 64.26 65.81 66.99 67.10 68.04 67.54 67.01 68.12 67.32 67.22 67.16 66.98 67.08 66.05 65.44 64.20 64.91 64.92 63.94 63.44 63.61 63.28 63.61 62.67 63.76 62.29 62.21 63.29
50.15 49.37 49.64 49.84 52.30 53.48 52.35 50.87 53.08 55.16 56.55 56.82 57.81 58.82 59.62 60.01 59.25 60.19 61.14 62.43 62.94 63.54 65.31 66.18 67.44 67.81 68.17 68.65 67.47 67.38 66.55 65.51 66.87 66.27 64.86 63.98 64.85 65.08 65.16 64.54 64.21 63.83 64.66 63.33 62.73 62.99 62.25 61.97 63.08
47.98 52.20 51.81 51.00 49.24 45.36 52.25 44.42 51.69 53.05 54.18 55.16 55.45 57.69 58.44 60.04 60.58 60.67 61.14 61.90 62.67 62.70 64.76 66.62 67.21 67.43 67.40 68.07 67.21 66.83 64.71 63.06 65.69 65.46 65.71 63.54 65.05 64.51 64.46 64.59 64.28 64.31 64.53 63.01 62.88 63.93 62.53 62.28 60.85
50.09 53.22 52.09 51.33 49.41 48.48 48.14 45.97 48.69 53.24 52.06 53.50 54.46 56.15 58.82 60.43 60.51 60.04 61.03 61.98 62.26 63.14 64.33 66.11 67.19 67.16 68.53 68.72 68.08 66.42 65.83 65.47 65.93 65.40 64.65 64.52 63.01 65.07 64.77 64.64 65.07 63.89 63.79 64.16 63.68 63.70 63.39 63.98 62.97
53.65 51.92 51.52 50.90 48.73 43.69 47.48 46.50 46.33 49.74 51.22 52.39 53.75 55.65 58.94 59.92 60.48 60.86 62.10 62.60 61.76 62.55 63.45 65.85 66.87 66.70 68.02 68.86 67.78 67.64 65.18 64.78 64.55 63.40 63.75 64.06 64.57 63.72 64.76 64.45 65.22 64.84 64.10 65.22 65.06 64.49 63.70 64.45 64.53
52.01 50.24 43.47 41.73 41.53 41.27 48.50 46.34 48.70 53.50 53.56 52.97 53.29 56.20 59.63 60.51 60.14 60.25 60.65 60.68 60.97 61.03 62.65 64.14 65.77 65.13 66.35 67.48 67.17 66.78 65.65 64.27 64.54 63.88 62.67 63.23 62.87 63.29 63.60 64.45 64.95 65.77 64.90 65.92 66.10 65.60 64.40 64.93 64.49
50.65 50.29 43.58 38.35 39.09 42.42 49.72 45.20 48.24 53.45 54.76 54.84 55.22 57.56 60.33 60.04 60.20 60.32 60.84 60.77 60.43 61.01 61.93 62.92 64.51 64.07 65.05 65.71 66.77 67.49 65.66 64.88 64.89 63.48 63.19 63.25 63.65 63.61 64.31 64.67 65.42 65.63 65.25 65.01 65.71 64.51 65.29 64.56 64.01
50.37 47.20 50.69 46.13 47.21 43.94 46.22 49.84 53.42 54.55 53.12 54.18 55.29 58.84 59.87 59.98 60.04 60.42 61.07 61.06 61.11 61.39 62.34 63.97 64.67 64.65 65.52 65.37 66.82 67.02 66.01 65.40 65.80 65.97 64.84 62.73 64.51 64.60 64.66 64.88 65.08 65.49 65.29 64.55 64.49 64.38 64.40 64.91 64.05
52.48 52.31 45.51 46.11 39.25 38.77 43.73 45.97 47.00 50.54 52.02 55.07 56.86 58.46 60.15 60.14 59.76 60.32 60.63 61.30 61.70 61.98 63.01 64.90 65.51 64.37 65.03 65.83 66.32 66.11 64.81 66.47 66.15 66.80 65.64 63.19 64.40 65.07 63.90 64.46 64.51 64.73 65.08 65.10 65.49 65.11 64.88 64.29 63.00
49.83 48.76 49.24 49.15 46.49 41.43 40.31 44.34 54.42 53.76 55.88 57.29 57.67 59.55 59.97 59.25 58.91 60.02 60.48 61.63 61.22 61.38 61.65 63.88 64.33 63.39 64.07 64.76 65.52 66.22 65.19 66.75 65.66 65.03 64.89 62.31 63.33 64.10 64.02 63.58 64.48 64.57 64.69 64.03 65.38 64.47 63.96 63.41 63.24
52.41 50.05 50.63 45.27 44.73 46.62 45.58 45.93 56.21 56.65 56.39 58.14 58.43 59.47 59.28 59.42 59.48 59.79 60.39 61.29 59.60 60.19 61.49 62.47 64.18 62.10 63.17 64.00 64.36 65.97 66.54 66.73 65.48 65.06 65.46 63.43 63.89 64.74 64.55 64.86 64.29 64.46 65.28 65.75 64.58 63.78 63.52 62.71 62.14

GFSSGP_sfc_wetblb_003.txt.gz
Wetbulb
67.04 66.24 62.54 58.46 51.19 50.45 47.03 52.67 55.74 54.32 51.38 52.71 54.75 53.33 50.95 51.66 51.73 49.11 60.44 65.88 69.27 67.46 69.81 73.01 74.47 74.42 73.89 73.64 73.69 73.50 73.10 72.78 71.53 71.41 71.21 70.40 69.39 68.98 68.88 68.36 67.63 67.13 67.03 66.85 67.30 67.72 68.04 69.56 70.02
62.31 61.68 58.27 58.44 49.65 45.53 47.90 54.91 54.62 50.96 53.20 54.36 54.15 53.60 52.63 51.90 59.05 59.13 59.07 67.86 70.13 69.00 70.06 71.15 74.49 74.27 74.14 73.92 73.70 73.47 73.42 73.05 72.31 71.94 71.12 70.62 70.01 69.52 69.40 69.09 68.92 68.55 68.18 67.77 67.76 67.81 68.20 68.20 68.97
62.47 60.33 57.54 54.25 50.26 46.68 49.33 54.90 55.50 53.28 54.36 53.39 52.49 55.40 55.44 54.17 59.19 60.95 62.05 65.71 70.21 69.86 69.75 71.24 74.72 74.19 74.24 74.17 73.92 73.89 73.76 72.95 72.06 71.56 70.68 69.92 69.89 69.84 69.53 69.34 69.52 69.52 69.25 68.80 68.41 68.08 67.97 68.21 69.19
61.91 61.63 59.00 49.47 47.77 52.75 53.19 54.79 54.80 52.65 53.52 54.12 53.97 53.00 57.09 60.58 59.73 62.43 64.26 64.44 63.67 66.02 70.92 73.37 74.61 74.34 74.37 74.17 74.17 74.16 73.02 72.08 71.47 71.06 69.96 69.61 69.51 69.99 69.98 68.79 68.84 69.09 69.30 69.24 69.17 68.05 68.83 68.61 69.62
62.53 58.45 49.08 47.49 50.08 54.75 54.28 56.76 52.51 51.41 51.96 52.12 53.49 52.25 54.59 60.07 62.56 62.40 62.31 62.53 60.95 67.66 71.86 73.59 74.98 75.10 74.83 73.77 73.20 73.30 71.94 70.39 69.60 69.59 69.40 69.01 68.87 68.78 68.93 68.76 68.69 68.83 69.01 68.91 69.13 68.42 69.30 69.16 69.54
55.64 53.85 44.92 43.83 49.35 53.76 54.31 55.03 55.01 52.32 53.28 52.79 52.19 54.38 54.74 59.90 60.71 60.62 61.95 60.49 61.85 66.16 68.91 70.79 74.07 73.27 72.45 71.74 71.69 71.19 69.59 68.16 67.07 67.07 67.56 67.73 67.82 67.75 67.94 67.92 67.97 67.86 67.95 68.40 68.79 68.50 69.31 69.23 69.28
53.31 49.21 46.35 48.43 49.83 51.23 54.28 56.84 53.91 53.18 51.44 51.71 53.82 51.98 55.51 58.23 59.90 60.31 60.50 60.69 61.03 62.90 66.30 67.63 68.45 69.87 71.88 71.88 70.80 69.58 67.29 65.77 65.17 65.29 65.49 65.94 66.25 66.33 66.57 66.64 66.92 67.22 67.31 68.08 69.36 68.56 68.58 68.89 68.65
55.87 51.06 47.56 49.50 48.45 48.73 55.69 56.10 55.93 54.61 53.87 57.24 56.78 51.52 52.42 57.26 60.39 59.79 59.19 59.14 59.14 60.13 61.00 62.37 65.27 66.45 66.72 67.25 69.06 67.51 66.46 66.00 65.58 65.36 65.20 65.13 64.80 65.13 65.53 66.04 66.45 67.09 67.26 67.67 68.59 68.08 68.08 68.62 68.46
59.71 48.47 46.83 48.59 49.34 51.58 53.80 51.73 55.72 57.05 55.19 55.77 55.92 54.64 58.83 60.48 60.05 57.47 55.79 56.08 56.43 59.14 58.88 57.98 58.68 59.22 62.30 63.82 66.21 67.12 66.82 66.56 65.90 64.95 64.29 64.20 61.32 61.25 63.34 65.21 66.76 67.56 67.58 67.62 67.94 67.78 67.48 68.09 67.82
54.87 49.28 49.70 53.94 54.21 52.79 53.01 51.57 52.51 54.36 54.22 54.29 56.53 57.48 60.19 60.03 57.21 55.85 55.28 54.78 54.97 56.56 56.71 58.34 59.44 59.91 60.56 63.42 62.44 62.41 62.61 61.41 61.21 61.50 60.96 60.76 60.43 60.67 63.16 64.65 65.80 66.43 67.46 67.26 67.41 67.17 66.97 66.64 62.48
54.98 50.02 53.33 54.25 55.99 56.13 54.42 51.66 53.45 52.40 51.89 54.44 53.38 55.13 56.69 57.17 55.91 55.34 55.01 54.71 55.10 56.87 57.54 57.30 58.28 59.88 60.13 60.50 60.87 60.12 59.96 59.97 60.54 61.02 61.08 60.29 61.11 60.36 60.59 61.46 62.38 62.27 65.06 63.44 64.77 64.18 63.74 63.05 61.59
52.36 54.41 54.98 55.08 56.24 55.43 52.58 53.20 52.29 52.93 53.98 56.96 56.86 56.74 55.81 55.21 54.59 54.91 54.43 54.84 55.05 55.76 56.30 59.29 60.19 59.98 60.46 61.63 61.02 60.47 61.03 59.87 59.67 59.92 61.21 60.42 59.90 59.98 60.35 60.36 61.00 61.44 61.88 61.27 61.79 61.75 61.97 62.28 61.34
53.45 54.48 55.86 56.40 56.28 53.39 54.13 52.64 52.79 52.55 56.27 57.72 56.41 55.99 55.21 54.57 55.07 55.38 55.87 55.85 55.94 55.99 57.53 59.55 59.87 60.18 61.56 61.66 61.37 60.69 60.42 60.19 60.11 60.69 61.37 61.14 60.08 61.12 60.68 60.52 60.47 60.17 60.92 60.89 60.89 61.16 62.01 61.77 61.09
55.12 54.53 54.94 56.00 55.39 53.51 52.51 53.12 53.77 54.27 56.94 56.26 54.59 53.93 54.21 54.67 55.53 55.60 55.82 55.51 55.96 55.79 57.29 59.19 59.64 60.57 61.63 61.52 61.37 60.90 61.85 61.77 61.42 60.87 60.48 61.53 61.43 61.07 59.36 59.78 59.58 59.43 59.64 60.37 60.33 60.86 61.26 60.89 59.75
53.25 50.25 52.38 53.81 54.11 51.69 54.14 51.02 51.34 54.87 55.60 54.60 54.18 54.13 54.25 55.03 56.75 55.78 56.28 55.79 56.37 55.57 58.41 58.57 59.24 59.98 60.18 60.28 60.69 61.57 61.61 62.27 61.20 60.77 60.74 61.60 62.14 61.46 59.47 59.47 59.27 58.92 59.34 59.37 60.31 60.29 60.69 60.55 61.64
49.49 50.44 46.74 51.01 52.74 53.65 52.03 46.71 52.43 55.20 54.10 53.71 54.64 55.13 55.09 54.93 55.12 56.19 56.82 57.10 56.89 56.39 57.86 58.91 61.67 59.82 59.71 61.24 61.24 61.88 61.95 61.61 61.10 61.48 60.80 61.03 61.52 60.52 59.79 59.70 58.69 59.09 58.80 58.82 59.18 59.34 59.60 60.08 60.64
47.05 42.66 44.91 48.52 53.27 52.66 50.97 48.52 53.06 54.97 54.08 53.15 54.17 54.57 54.81 54.13 55.54 57.03 58.34 58.21 56.88 56.42 57.85 58.73 59.90 59.26 60.16 61.25 61.58 61.39 62.40 62.06 62.15 62.01 60.26 60.13 59.92 61.27 60.04 59.67 59.30 59.40 58.73 58.61 59.18 58.83 59.70 59.13 59.95
41.69 43.37 46.88 46.96 51.06 51.34 50.01 49.83 52.21 53.87 53.53 52.91 52.84 54.23 54.91 54.57 55.51 57.27 58.62 59.10 57.49 57.25 58.73 59.48 59.41 60.21 61.16 60.76 61.03 60.95 61.69 62.13 62.59 61.98 60.19 60.74 59.91 61.73 60.86 59.88 59.57 59.30 58.19 57.89 58.53 58.36 59.48 59.72 60.02
46.98 46.16 46.26 49.59 52.23 50.51 49.74 50.46 51.23 53.06 52.55 51.23 52.02 52.88 54.28 54.13 55.68 57.42 58.63 59.02 57.97 58.11 59.51 59.80 59.65 59.70 59.71 58.64 59.70 58.94 59.02 60.50 61.87 62.10 62.04 60.82 61.18 61.01 60.46 59.41 59.70 59.28 58.27 57.66 58.62 59.15 58.70 58.86 59.32
47.67 45.39 45.02 48.78 51.71 50.86 50.28 49.26 51.45 52.85 51.99 52.17 52.43 52.29 52.08 53.20 54.99 56.72 57.37 57.67 56.96 57.43 58.71 60.19 60.06 59.92 59.30 59.35 61.16 59.99 60.84 61.48 61.94 62.05 61.85 61.59 61.99 62.01 61.39 60.12 59.36 59.36 58.49 58.41 58.63 58.27 57.50 57.88 60.08
47.13 45.49 45.33 45.76 49.98 51.08 47.98 45.47 49.06 52.32 52.77 53.27 53.68 53.14 54.01 53.72 54.07 55.34 57.14 56.38 56.44 56.68 57.73 59.95 60.00 58.90 59.12 60.41 61.28 60.09 60.24 60.55 60.48 60.84 60.54 60.22 61.35 61.86 61.38 60.43 59.61 59.53 59.00 58.44 58.54 58.55 58.20 57.17 59.16
43.79 49.66 48.73 47.90 46.87 40.72 48.29 36.36 45.15 48.85 49.68 51.50 51.74 51.72 53.02 53.84 55.06 55.86 56.66 56.39 56.05 57.26 59.01 59.67 59.57 58.43 59.77 59.43 60.17 59.26 58.32 57.58 59.66 60.68 60.86 60.31 61.36 61.11 61.44 60.84 60.57 59.20 59.13 58.71 59.44 60.41 59.39 60.68 58.19
46.48 50.47 49.09 48.99 46.53 42.59 43.41 38.55 42.13 48.04 47.71 49.74 49.36 52.22 53.37 53.96 55.06 55.43 56.76 57.79 57.51 57.78 57.75 58.87 58.17 58.13 60.05 59.73 59.87 60.07 59.27 60.44 60.63 59.82 59.85 59.49 60.94 60.94 62.04 61.21 60.27 59.07 58.81 58.63 60.83 58.87 59.28 60.78 59.41
51.50 49.05 48.74 48.06 43.68 35.32 42.03 40.92 40.87 45.09 47.94 48.59 50.15 52.14 54.43 53.73 54.76 55.92 57.82 58.19 56.75 57.03 57.60 58.25 58.68 58.50 60.02 61.26 59.28 59.82 59.71 60.85 59.66 57.89 58.55 58.83 60.45 60.03 61.04 61.34 59.99 58.93 58.81 59.16 59.97 60.22 60.14 59.52 59.99
49.51 43.96 36.99 32.36 32.05 32.15 44.35 41.40 42.95 48.25 50.71 49.90 50.97 52.45 53.52 54.67 54.79 55.97 56.75 56.23 55.28 55.03 56.23 57.49 58.41 56.50 57.96 59.55 59.54 59.77 58.77 59.77 58.26 57.40 57.88 58.67 58.07 58.29 59.04 59.84 59.69 59.96 59.48 60.63 61.23 61.12 61.51 61.53 60.68
45.68 44.33 36.77 29.99 31.27 36.42 44.92 39.47 44.37 51.12 51.62 51.90 54.11 54.07 54.43 53.48 54.99 55.48 56.01 55.51 55.33 54.80 56.24 56.55 57.83 56.66 56.29 58.07 58.69 59.30 60.22 60.56 59.01 57.85 58.98 59.24 58.53 58.47 59.26 60.10 60.22 61.07 61.12 61.39 61.03 60.50 62.08 61.97 61.22
45.18 42.64 46.36 39.85 40.14 36.19 40.66 45.49 48.99 49.82 49.62 50.39 53.82 54.24 52.61 52.85 53.78 54.93 55.87 54.81 54.86 54.34 54.53 54.34 57.18 56.23 56.61 58.38 58.18 59.69 60.96 60.68 59.97 59.94 59.08 59.09 59.39 60.24 60.39 60.54 60.63 61.03 61.44 60.94 60.54 62.20 62.08 62.06 61.56
47.25 48.94 40.68 37.85 31.04 28.98 38.72 40.92 41.98 45.61 47.39 49.60 53.02 52.44 52.68 53.37 54.06 55.06 55.82 54.97 55.20 54.90 54.45 55.12 57.63 56.37 57.39 58.40 58.83 60.46 62.38 61.73 61.17 60.91 60.92 59.22 59.69 59.53 60.23 60.53 60.60 61.33 61.25 61.19 61.86 62.21 61.51 60.96 61.07
45.14 43.79 42.19 40.87 38.45 32.02 30.77 37.73 47.20 47.00 49.54 51.55 53.20 53.90 53.43 53.70 53.83 55.04 55.04 55.69 55.62 55.54 55.01 55.78 56.85 56.32 56.55 57.24 57.51 60.34 62.53 61.56 61.75 61.00 60.51 60.13 59.02 60.51 60.74 60.88 61.02 61.35 61.26 60.87 61.30 60.83 61.42 60.56 60.81
48.06 45.21 43.02 39.25 36.28 39.47 38.63 38.91 50.38 51.70 52.55 53.37 54.71 54.97 53.38 53.63 53.79 55.26 55.43 55.14 54.63 54.78 55.03 55.40 56.88 56.21 56.30 57.63 57.51 59.22 61.26 61.39 61.45 61.98 61.83 60.86 60.35 60.46 60.74 61.82 61.75 62.41 61.42 61.39 61.58 61.66 61.72 60.40 59.85

GFSSGP_sfc_wetblb_006.txt.gz
Wetbulb
66.59 66.07 61.95 57.24 50.67 48.54 45.74 49.77 53.39 51.65 49.77 51.68 52.65 51.94 50.11 50.71 50.54 45.87 59.75 66.95 66.43 65.73 70.00 72.73 74.20 74.10 73.75 73.38 72.98 72.79 72.61 71.85 70.62 70.54 70.54 70.34 69.87 69.16 68.76 68.45 67.97 67.29 67.16 67.09 67.26 67.37 67.41 67.59 68.74
63.80 62.86 56.75 56.21 48.17 44.61 46.67 52.75 51.02 50.51 52.01 52.33 52.48 51.62 50.99 53.01 58.22 58.46 61.31 67.39 66.03 66.50 69.22 71.55 74.38 74.18 73.93 73.66 73.48 73.37 72.79 72.04 71.42 71.32 71.30 71.35 70.68 69.85 69.35 69.30 69.07 68.83 68.56 68.45 68.04 67.87 67.71 67.76 67.51
60.43 59.29 53.11 52.53 48.07 44.99 46.63 53.29 54.24 53.08 53.33 52.43 51.09 54.41 54.35 54.03 59.76 58.89 60.80 68.09 66.00 66.27 68.83 70.49 74.35 73.98 73.90 73.73 73.73 73.47 73.06 72.49 71.90 71.62 71.33 70.81 70.33 70.06 69.79 69.69 69.59 69.52 69.66 69.41 69.03 68.65 68.37 68.12 68.14
60.27 59.76 56.80 48.71 46.02 50.36 52.48 54.82 55.29 50.73 51.81 51.92 52.60 52.75 56.00 59.66 60.41 61.18 67.57 68.97 66.64 67.21 68.80 71.35 74.25 74.03 74.10 73.63 73.13 72.98 72.64 72.44 71.70 71.18 70.81 70.07 69.73 70.08 70.61 69.52 69.49 69.26 69.21 68.96 69.36 69.34 68.62 68.40 69.02
60.62 56.13 48.34 45.38 48.00 51.94 54.16 55.41 52.63 50.28 50.57 50.57 51.29 52.44 53.75 59.42 62.31 62.39 65.41 68.55 66.29 66.91 68.56 71.89 74.52 74.39 74.47 73.55 73.08 73.30 73.15 72.34 71.38 71.01 70.41 69.74 69.88 70.16 69.59 68.91 68.76 68.90 68.96 68.97 69.31 69.16 69.18 69.79 69.62
54.50 51.84 43.16 42.47 47.07 51.60 52.52 54.37 54.22 51.85 52.17 51.07 52.69 52.86 53.03 59.12 60.33 60.04 59.94 61.92 67.40 69.14 71.03 72.10 74.15 74.31 74.30 74.19 73.11 72.31 71.23 70.33 69.43 68.53 68.39 68.63 68.68 68.61 68.36 68.30 68.15 68.04 68.14 68.50 68.73 69.25 69.46 69.43 69.27
51.93 48.46 44.31 45.98 48.40 49.54 52.44 55.15 53.28 52.45 51.51 50.90 53.71 51.49 54.41 56.52 58.75 59.63 59.06 63.01 66.24 68.66 69.85 70.55 71.66 73.29 73.30 72.19 72.09 71.42 70.26 69.10 67.35 65.87 65.73 65.93 66.31 66.62 66.84 67.01 67.24 67.40 67.59 67.71 68.34 69.01 69.31 69.12 68.93
54.07 49.64 44.92 46.19 46.12 46.94 52.85 51.77 52.69 52.67 53.59 55.33 55.32 52.01 51.37 56.66 58.73 58.11 58.25 58.63 61.83 64.58 66.37 66.48 66.13 66.41 66.82 68.13 70.25 69.88 68.44 66.47 66.18 65.97 65.88 65.54 65.38 65.30 65.61 65.92 66.26 66.70 66.75 67.18 68.11 68.11 68.73 68.37 68.64
56.48 46.25 44.28 45.97 47.71 49.51 54.18 49.57 53.96 55.27 53.37 54.09 54.44 54.71 57.71 59.30 58.03 56.18 55.35 55.39 55.65 59.83 61.12 63.43 62.25 63.86 64.75 65.17 66.59 68.17 67.33 66.71 66.81 65.95 65.67 65.24 61.71 60.33 61.90 64.17 66.21 66.79 67.42 67.37 67.33 67.85 67.76 67.66 67.96
52.21 46.29 49.26 53.35 52.21 50.42 53.58 51.72 53.15 51.56 51.62 52.45 55.15 57.69 58.80 58.81 56.90 55.49 54.41 54.22 53.65 55.00 55.64 56.10 57.69 59.87 61.89 64.90 63.40 63.44 62.62 62.35 62.55 61.24 60.21 59.68 59.33 59.32 62.60 64.08 65.78 66.12 66.59 66.96 67.30 67.37 67.35 67.29 62.77
52.21 49.60 53.60 54.31 55.03 54.64 53.68 53.81 54.68 51.08 49.25 51.40 52.15 55.71 57.03 56.54 55.11 54.88 54.39 54.27 53.93 54.00 56.26 56.95 57.97 58.12 58.69 59.81 60.49 59.98 58.85 59.02 59.14 59.65 59.79 59.69 59.96 59.33 59.56 59.53 60.88 60.63 63.82 62.70 64.55 64.09 64.33 63.01 61.91
49.28 54.42 55.22 55.42 56.21 54.49 53.18 55.23 53.74 52.11 51.77 54.05 55.38 57.44 56.46 55.27 54.71 53.88 53.71 53.38 53.45 54.60 54.98 55.80 57.63 58.48 58.61 60.04 59.78 59.40 59.73 58.84 58.59 58.89 59.54 59.16 58.84 58.46 58.96 59.71 60.05 59.94 60.80 60.94 60.97 60.99 61.49 61.98 61.74
51.70 53.85 55.45 55.93 55.18 54.80 55.41 53.45 53.00 52.13 54.91 55.54 55.69 56.15 55.82 55.44 54.52 53.85 53.47 53.52 53.48 54.19 56.75 57.40 58.20 59.30 60.32 59.99 59.60 59.67 59.41 59.47 59.15 58.90 60.02 60.06 58.76 58.30 61.21 61.16 60.45 59.08 59.68 59.88 59.66 60.32 60.68 60.58 61.19
53.83 54.34 54.45 55.23 54.77 55.12 53.63 53.85 52.27 53.70 55.56 54.67 53.65 53.91 54.20 53.82 54.05 52.76 53.23 53.41 53.93 56.15 57.56 57.76 58.52 59.58 60.35 59.48 59.59 59.93 59.56 60.33 60.23 59.98 60.25 60.23 59.53 59.94 60.68 58.06 58.44 58.10 58.40 59.20 59.38 59.60 59.55 60.02 60.31
51.10 49.54 52.57 53.22 52.24 51.42 53.31 49.95 50.44 53.95 54.36 53.05 52.22 52.21 53.53 54.24 54.15 54.55 55.10 54.89 55.20 55.42 57.88 57.31 58.49 59.36 59.55 59.48 59.62 59.51 60.00 61.08 60.28 60.30 60.03 59.89 59.76 59.49 58.79 58.00 58.06 58.36 58.22 58.25 58.80 58.99 59.42 59.26 60.03
45.73 44.22 41.64 48.57 50.75 52.06 50.12 45.95 51.91 53.87 52.88 52.49 52.88 52.34 52.59 52.49 54.99 54.97 55.05 55.22 54.03 55.47 56.81 57.89 60.99 58.62 58.58 57.82 58.96 60.10 60.77 60.42 60.12 59.98 60.06 60.43 60.68 59.82 58.35 57.92 58.16 58.40 57.76 57.58 57.74 58.04 58.04 58.36 58.66
42.37 40.03 42.11 44.95 50.75 51.12 49.47 47.61 52.42 54.25 52.74 52.23 52.16 52.59 53.39 53.05 53.51 53.98 55.50 55.82 54.45 56.13 56.08 57.06 57.68 57.77 57.76 58.83 59.55 59.98 60.54 60.30 60.66 60.16 59.91 59.68 59.81 59.61 58.07 58.44 58.44 58.31 57.46 56.96 57.14 56.62 57.53 57.24 57.74
40.03 39.97 43.04 44.12 48.81 49.52 48.27 48.02 51.51 53.14 52.91 52.31 51.80 52.63 53.01 52.36 53.07 54.95 55.89 55.64 54.55 56.14 56.82 57.63 57.91 57.86 59.17 59.31 58.58 59.93 59.51 60.56 61.09 61.23 60.27 59.86 59.49 60.06 58.95 58.64 58.58 58.16 56.58 56.14 56.76 56.16 57.80 57.65 57.60
44.86 43.11 42.58 46.67 49.76 47.82 47.58 48.37 50.69 52.19 51.15 51.31 50.43 50.92 51.93 51.82 53.60 55.23 56.61 55.97 55.35 56.24 57.29 57.16 57.65 58.19 58.54 56.99 57.57 57.23 57.81 59.25 60.08 61.44 61.43 60.91 59.72 59.75 58.62 58.72 58.42 57.86 56.54 56.04 56.60 56.94 56.97 56.90 57.74
44.08 43.24 43.06 46.46 49.08 47.04 46.99 46.96 50.66 51.43 50.52 50.27 50.87 50.75 50.52 51.25 53.86 55.63 55.42 55.04 55.13 56.38 57.37 57.69 58.12 57.80 58.01 57.06 59.22 58.52 58.67 59.51 59.94 60.45 60.91 61.94 61.02 61.65 59.85 59.14 58.05 57.74 56.72 56.36 57.02 57.01 56.04 56.48 57.70
43.50 42.43 43.96 44.12 47.68 48.59 46.16 44.75 46.39 50.68 51.31 51.86 51.55 51.42 51.87 52.30 52.83 54.55 55.19 54.10 54.37 55.79 57.16 58.45 58.12 58.39 57.19 58.83 59.05 58.54 58.54 58.95 59.17 60.02 60.71 60.05 60.64 61.88 60.64 59.50 58.35 57.74 56.92 56.32 56.36 57.06 56.77 55.92 57.24
40.65 47.17 47.05 46.68 44.48 38.50 46.07 36.22 42.28 47.03 47.77 49.37 49.96 49.68 50.79 52.31 53.55 54.82 54.67 53.31 53.95 54.64 56.62 58.27 58.45 57.01 58.20 58.23 57.72 57.69 57.17 56.48 57.65 58.03 59.12 58.87 60.26 60.58 60.52 59.62 58.90 58.05 57.36 56.60 57.36 58.57 57.65 57.49 56.44
43.70 47.63 46.45 46.48 44.19 41.09 42.83 37.36 40.80 45.53 45.89 48.34 49.34 49.60 50.35 52.37 53.28 54.05 54.57 54.87 54.76 56.67 56.44 58.01 56.64 58.36 58.74 57.96 58.00 58.39 56.76 57.90 58.06 57.68 57.67 58.38 59.65 61.05 60.81 59.65 58.71 57.68 57.41 57.41 58.69 57.61 58.07 57.95 57.98
48.70 46.29 45.34 44.98 42.48 36.18 41.78 39.84 41.83 42.47 46.39 47.84 48.75 50.76 50.82 51.05 52.30 53.75 55.54 55.20 54.82 55.11 56.30 56.46 55.63 56.74 58.35 58.39 58.39 57.82 56.95 56.95 56.42 56.36 56.96 57.06 57.86 59.94 59.40 59.95 58.22 57.22 57.11 57.85 57.85 57.73 58.05 57.57 59.04
45.91 41.25 33.91 29.61 32.22 33.82 41.78 39.20 41.77 46.20 48.60 49.50 48.18 49.88 50.38 51.72 52.87 54.54 54.77 54.09 53.73 54.52 55.47 55.66 56.19 56.52 57.16 57.50 58.35 57.47 58.01 57.00 55.76 55.88 56.82 55.84 56.28 56.82 57.11 58.14 58.74 57.56 57.92 58.65 58.71 58.09 59.84 58.19 58.94
41.48 40.27 36.10 28.92 29.51 34.20 42.42 37.20 42.36 48.39 49.98 50.72 50.94 51.24 51.53 51.06 53.36 54.33 54.90 54.16 53.37 54.45 55.19 55.78 55.59 54.57 54.99 56.81 57.89 57.49 58.50 57.36 56.52 57.39 57.26 56.88 56.50 56.90 57.51 58.69 58.70 59.21 59.69 60.07 58.99 60.39 60.13 59.45 59.21
40.95 39.27 43.76 37.61 37.90 34.59 37.45 42.17 47.52 48.63 48.41 50.51 50.70 51.48 50.24 51.04 52.70 54.16 54.56 53.26 52.00 53.67 54.42 54.63 55.91 55.20 54.35 56.72 57.88 58.19 58.89 58.24 57.89 57.77 57.58 57.42 57.48 58.61 58.71 58.90 58.72 59.61 59.84 59.44 60.16 60.82 60.13 60.80 61.34
42.83 44.72 38.35 35.72 31.15 28.94 35.29 38.08 39.39 43.60 46.20 49.83 49.60 49.37 49.70 51.18 52.68 54.19 54.22 52.64 51.94 53.52 52.78 52.82 55.87 54.46 55.80 56.85 56.48 59.38 60.97 59.65 59.24 58.05 57.63 57.87 57.57 58.14 58.90 58.91 58.93 59.25 59.56 59.74 60.55 60.05 59.35 61.51 62.00
40.29 39.64 40.49 40.03 37.05 32.16 28.87 34.95 43.94 45.73 46.07 49.63 50.06 50.86 50.82 51.89 53.22 54.10 53.47 53.36 52.39 52.39 51.53 52.88 55.33 54.32 54.84 56.26 56.74 60.15 60.48 60.26 59.98 59.23 57.57 58.23 58.28 58.51 59.38 59.46 59.89 59.53 59.66 59.96 59.87 59.01 59.98 61.07 61.44
43.43 41.36 41.61 38.65 34.39 36.12 35.51 37.16 46.90 47.54 48.25 51.80 50.64 52.03 51.69 52.94 53.52 53.71 53.37 52.96 52.21 51.85 52.02 54.04 54.51 54.50 54.59 55.97 56.03 59.90 60.51 59.92 59.77 59.07 58.63 58.68 58.48 59.03 59.70 60.32 60.54 60.40 59.53 59.98 60.20 60.16 60.36 60.20 60.36

GFSSGP_sfc_wetblb_009.txt.gz
Wetbulb
67.00 65.55 60.47 56.38 50.22 47.78 44.90 48.22 51.35 52.44 48.55 51.11 51.31 50.14 49.35 49.99 48.99 44.89 58.25 65.56 64.30 63.35 67.26 72.80 74.24 73.77 73.07 72.77 72.47 72.23 71.71 71.31 70.18 69.42 68.74 68.83 68.81 68.73 68.45 68.22 68.05 67.43 67.24 67.25 67.49 67.20 66.86 66.93 67.00
64.24 62.35 57.39 55.55 47.07 43.17 45.15 51.43 51.63 52.04 51.48 51.30 50.81 50.25 49.99 51.28 57.23 59.17 61.62 65.92 65.70 65.58 68.23 71.41 74.12 73.94 73.47 73.22 72.95 72.60 71.79 71.09 70.49 69.96 70.20 70.18 70.29 69.92 69.27 69.11 69.06 68.86 68.75 68.55 68.45 68.24 67.97 67.42 67.28
61.22 58.36 52.18 51.80 46.74 44.16 45.46 51.50 52.11 54.15 54.14 50.72 50.21 53.22 53.12 53.44 59.11 59.49 61.90 66.27 64.34 65.79 68.67 70.41 74.19 73.82 73.74 73.12 73.17 72.72 72.11 71.54 71.14 70.94 71.02 70.58 70.63 70.13 69.88 69.44 69.27 69.56 69.71 69.58 69.26 69.01 68.77 68.47 67.93
58.73 58.53 55.49 48.30 46.09 49.31 50.76 53.80 55.03 53.79 50.85 50.92 51.59 51.37 54.47 58.48 58.94 59.62 65.57 65.32 64.43 65.01 67.94 71.07 74.14 74.04 73.87 73.87 73.15 73.04 72.31 71.96 71.56 71.59 71.15 70.68 70.16 69.70 69.68 69.86 69.76 69.44 69.34 69.25 69.26 69.33 69.49 68.96 68.65
59.83 54.80 48.47 44.96 46.87 50.12 52.67 54.36 52.41 51.35 50.17 50.22 51.47 51.20 52.08 57.61 60.98 63.63 66.38 65.47 63.20 64.02 66.73 70.18 74.03 74.21 73.99 73.69 72.85 72.73 72.68 72.67 72.16 71.64 70.88 70.46 69.99 69.73 69.29 69.41 69.11 69.12 68.91 68.73 68.74 68.88 69.80 69.43 69.24
53.62 50.89 42.32 40.52 44.89 49.67 51.58 53.56 51.85 51.61 52.16 50.10 51.31 51.73 51.94 57.57 59.72 64.18 66.86 65.02 65.37 65.60 66.69 69.59 73.62 74.13 73.93 73.76 73.32 73.21 73.39 72.50 71.78 70.92 69.94 69.55 69.31 69.21 69.06 69.04 68.76 68.14 68.12 68.49 68.59 69.48 69.61 69.35 69.16
51.22 47.56 43.62 43.39 47.39 48.56 51.11 52.78 50.42 50.60 50.46 51.36 53.06 50.28 52.41 55.84 58.54 60.05 61.55 64.31 65.62 67.06 68.42 70.03 71.39 72.83 73.81 73.70 73.64 73.41 71.62 70.75 70.04 69.21 67.68 66.46 66.32 66.42 66.64 66.90 67.23 67.44 67.68 67.73 67.91 68.65 69.25 69.26 68.60
53.42 49.07 44.26 45.02 44.67 46.32 51.21 51.50 50.82 50.37 51.75 53.96 56.31 51.16 50.81 55.55 58.06 57.54 61.03 63.55 65.17 67.52 68.86 69.09 69.07 70.19 69.22 69.88 72.37 71.84 70.55 69.61 68.48 66.48 66.27 66.23 66.13 65.89 65.61 65.70 65.86 66.54 66.63 66.75 67.33 67.38 68.70 68.94 68.21
53.98 45.29 43.05 45.16 45.74 48.01 51.01 49.04 53.73 54.79 51.94 53.04 53.43 54.67 56.87 58.18 57.02 56.16 55.44 56.34 59.12 63.86 64.32 65.31 65.38 64.71 64.90 65.82 67.46 69.88 69.19 67.65 66.87 66.37 66.76 65.74 62.19 61.15 62.21 63.09 64.67 65.60 66.61 67.19 67.24 67.09 68.14 67.94 67.58
50.96 45.01 46.15 50.91 50.57 48.91 51.36 51.78 53.92 51.98 52.61 50.56 52.67 56.35 58.34 57.54 56.28 55.59 54.35 54.69 55.17 58.91 59.89 61.76 61.41 62.32 62.92 65.11 63.38 63.12 62.68 62.19 62.05 62.69 61.03 59.71 58.77 58.43 60.97 63.22 65.16 65.84 66.11 66.39 66.76 66.93 67.53 67.10 63.37
50.62 47.85 52.08 52.36 53.60 52.72 51.80 52.86 55.90 52.58 51.24 53.30 51.59 52.98 55.42 55.17 55.16 55.47 55.52 55.80 56.17 58.44 56.95 57.15 58.17 60.40 61.04 61.13 60.71 61.25 60.44 58.72 59.14 60.31 59.38 58.46 59.27 58.79 58.85 58.63 59.06 59.47 62.53 61.68 62.73 63.49 63.41 63.36 61.89
47.42 52.29 53.84 53.77 55.02 53.15 52.58 55.15 53.43 53.94 53.62 56.21 55.22 55.36 55.31 53.96 53.89 55.08 54.65 54.64 52.46 53.25 54.71 55.84 57.43 57.52 57.79 58.86 59.29 59.76 58.39 58.37 57.79 58.43 58.74 58.03 57.93 57.91 57.63 57.93 58.89 58.67 59.49 59.72 59.81 60.54 61.09 61.32 61.50
49.01 51.69 53.67 54.66 54.12 54.45 55.02 52.92 52.94 53.74 56.33 57.19 54.29 55.49 55.27 54.96 54.77 55.50 55.79 54.83 51.86 52.54 54.17 56.09 56.65 56.82 57.73 58.36 58.37 58.25 58.45 58.87 58.29 58.08 58.48 58.75 58.01 57.79 57.83 59.03 60.12 60.05 59.35 59.11 58.69 59.21 59.94 60.47 61.01
51.21 51.90 52.79 53.94 54.17 54.44 52.86 53.27 54.25 55.15 57.01 55.66 53.55 53.51 54.75 55.31 54.96 53.95 51.75 51.97 51.85 53.64 54.56 56.03 57.03 58.13 58.83 58.28 58.02 58.45 58.71 58.73 58.55 58.79 59.01 59.85 58.69 58.05 58.17 59.09 59.00 57.39 57.45 57.83 58.27 58.67 58.94 59.08 59.40
48.02 45.11 48.18 50.43 52.31 51.92 53.06 49.48 50.20 53.88 54.15 52.85 53.02 52.06 53.53 54.98 55.59 53.90 54.87 53.44 53.41 55.15 56.15 56.91 57.65 58.76 58.57 57.90 58.46 58.47 58.85 59.42 59.13 59.53 59.74 59.67 58.64 58.21 58.69 57.39 56.87 57.27 57.55 57.37 57.67 57.99 58.25 58.21 58.75
43.13 42.15 39.75 47.23 50.18 51.99 49.21 44.74 50.95 53.46 52.16 51.77 52.62 52.12 51.89 53.05 53.84 55.37 53.86 53.22 53.85 56.11 56.60 56.96 60.12 58.50 58.02 57.37 57.89 58.12 58.75 58.87 59.15 59.19 59.15 59.83 59.63 59.02 57.71 56.89 56.79 57.73 57.29 56.55 56.49 56.57 56.81 56.93 57.07
39.15 38.00 39.32 43.78 48.81 48.19 46.85 44.87 51.08 52.72 51.21 50.53 51.50 51.97 50.83 51.51 51.38 52.44 53.50 53.34 53.81 56.68 56.30 56.54 57.75 57.31 57.30 56.69 57.04 58.24 58.91 58.91 59.37 59.21 59.14 59.70 60.33 60.22 57.73 56.77 57.11 57.63 56.61 55.91 55.95 55.47 56.43 56.11 56.49
36.56 36.79 41.20 41.59 45.49 46.67 45.85 45.67 50.20 52.28 51.59 50.40 51.66 52.70 51.52 51.96 51.52 52.79 53.00 53.40 54.02 55.21 55.93 56.24 56.44 56.41 56.37 57.37 57.38 57.74 58.17 58.61 59.53 59.64 59.70 59.88 59.61 59.67 57.17 56.43 57.35 57.77 56.33 55.38 54.98 54.93 56.35 55.95 56.01
42.30 40.40 40.10 43.60 47.02 45.91 44.72 45.30 48.57 51.01 49.54 50.24 51.01 51.74 50.76 51.31 51.42 52.80 53.62 53.80 55.26 55.19 55.69 56.30 56.10 56.11 57.26 56.70 55.65 56.45 56.43 57.48 58.37 59.80 60.81 60.41 60.94 59.58 58.09 57.25 57.85 57.31 55.76 55.15 55.57 55.37 55.05 55.28 56.35
42.12 40.11 40.52 44.76 47.31 44.90 44.59 44.49 47.80 49.19 49.51 50.45 51.44 50.27 49.61 49.68 51.44 53.07 53.07 53.99 55.03 55.43 56.08 56.11 56.42 56.97 57.18 55.77 57.18 57.08 56.75 58.17 58.65 59.09 61.53 62.13 61.20 60.08 60.14 58.49 57.83 56.85 55.56 54.95 55.25 55.65 54.66 55.37 56.35
41.65 40.01 40.99 41.62 45.51 46.14 44.54 42.69 45.66 49.11 49.49 50.49 50.14 49.56 49.94 50.80 51.22 52.95 53.25 53.07 54.22 55.64 55.92 56.56 56.67 57.10 56.89 56.87 57.36 57.05 57.14 57.84 57.77 57.77 58.47 59.12 59.93 60.31 60.43 59.25 58.03 56.79 55.79 54.80 54.99 55.77 55.73 54.92 56.71
38.94 45.28 44.62 43.20 40.96 37.16 43.69 33.46 41.50 45.01 46.98 48.00 49.07 48.57 49.73 50.35 51.89 53.44 53.84 51.85 54.26 55.29 56.51 57.36 57.23 56.77 56.47 57.77 56.58 56.14 55.87 55.31 56.27 56.55 57.53 57.85 59.21 60.02 59.88 58.99 57.89 56.97 56.21 55.13 55.49 56.75 55.91 56.09 55.26
41.99 46.53 44.71 43.59 40.38 38.02 41.20 35.80 39.56 43.30 44.65 46.22 47.93 47.99 48.01 49.57 51.68 52.92 52.79 53.42 53.95 54.81 56.20 56.69 56.68 55.83 57.00 57.01 56.77 57.22 55.27 55.99 56.49 56.29 56.33 56.89 57.74 59.57 59.45 58.49 57.58 56.57 56.01 55.65 56.35 56.49 56.51 56.43 56.09
46.18 42.82 41.90 40.83 38.05 32.59 39.76 37.38 38.94 41.46 44.28 46.14 48.00 48.97 49.26 49.05 50.97 51.97 52.78 53.34 53.36 54.38 55.76 55.79 55.66 56.54 56.90 56.89 56.83 56.68 55.65 55.26 55.05 55.29 55.61 55.61 56.57 58.29 58.28 58.65 57.30 56.60 55.91 57.23 56.89 56.93 56.91 57.03 57.09
42.58 37.55 30.07 26.53 29.45 30.61 40.17 36.98 41.15 45.21 47.20 48.29 48.71 48.24 48.40 49.69 51.43 52.08 52.56 52.11 52.97 53.74 55.03 54.38 54.43 55.47 56.43 57.72 57.66 56.37 56.22 55.87 54.80 55.11 55.51 54.73 55.20 55.72 56.07 56.98 56.70 56.31 56.92 57.26 57.11 57.21 56.91 56.79 58.06
40.28 39.90 32.07 26.58 27.47 32.06 40.22 36.09 41.56 47.09 49.48 49.73 49.79 48.44 49.20 49.48 51.46 52.31 52.83 52.91 53.02 53.97 54.40 55.46 54.35 54.99 54.39 56.18 57.35 56.14 57.08 55.53 54.97 57.10 55.83 55.18 55.30 55.79 56.29 57.54 57.74 58.02 58.61 58.18 57.95 57.95 57.73 57.57 57.95
39.51 37.03 42.21 34.74 35.44 32.64 35.81 40.38 45.28 46.90 47.03 48.40 48.19 49.06 48.20 49.50 51.27 52.36 52.97 52.15 52.66 53.37 53.63 54.74 54.17 53.46 53.44 55.87 56.76 56.68 57.30 56.03 55.97 56.19 55.93 55.91 56.23 57.29 57.40 57.78 57.61 58.71 58.54 58.34 58.65 58.66 60.07 60.58 60.25
39.84 41.80 33.77 31.92 26.60 25.87 33.80 36.18 38.49 42.86 45.20 47.62 47.77 47.38 47.87 49.65 51.22 52.50 52.61 51.54 52.36 53.30 53.40 53.61 55.01 54.25 53.46 55.57 56.77 58.02 58.99 57.65 56.43 56.79 56.33 56.07 56.45 57.07 57.35 57.82 57.82 58.16 58.04 58.99 58.80 59.69 61.09 61.65 61.79
36.73 38.10 35.76 37.42 35.05 29.18 27.32 33.98 42.68 44.58 46.07 47.48 47.67 48.16 48.58 50.10 51.87 52.86 51.99 51.68 51.91 52.27 51.83 51.97 54.32 53.57 54.14 55.34 55.40 59.20 59.00 58.85 57.74 57.42 56.87 57.03 56.41 57.55 57.91 58.09 58.19 58.05 58.21 58.53 58.38 60.12 61.16 61.56 61.35
42.42 39.50 39.24 34.54 31.96 34.03 34.53 37.77 45.86 45.01 45.92 48.64 48.33 49.16 48.80 50.63 52.16 52.51 52.05 50.76 50.37 50.90 50.17 51.41 53.76 53.32 54.32 55.23 55.21 58.70 59.13 58.90 58.00 57.10 56.82 56.98 57.18 57.76 58.91 59.13 58.75 58.79 58.35 58.39 59.60 59.98 60.61 60.89 60.82

GFSSGP_sfc_wetblb_015.txt.gz
Wetbulb
67.59 65.40 62.40 59.96 53.63 53.95 50.90 53.54 56.21 56.14 56.00 55.34 55.65 55.11 55.00 56.22 56.84 52.02 65.36 68.31 68.82 66.32 67.95 73.06 74.28 73.68 73.04 72.40 71.92 71.49 71.27 70.78 69.58 68.87 68.61 68.29 68.15 67.93 67.88 67.79 67.66 67.67 67.69 67.70 67.57 67.52 67.25 66.91 66.92
65.34 62.50 62.81 60.45 53.24 48.53 52.07 56.36 55.94 58.29 59.01 60.25 56.69 54.72 54.28 54.40 58.71 62.39 65.70 68.33 68.01 67.05 69.39 71.11 74.25 73.66 73.33 72.78 72.54 72.02 71.55 70.90 70.44 69.67 69.24 68.95 68.87 68.79 68.88 68.89 68.89 68.70 68.48 68.38 68.43 68.74 68.78 68.52 67.66
63.22 61.00 60.54 58.42 54.70 51.52 52.92 56.22 57.85 58.79 60.36 57.66 55.07 55.87 55.79 56.63 61.09 63.86 68.09 69.05 66.98 67.67 70.15 72.34 74.30 73.73 73.53 73.21 73.16 72.69 72.24 71.67 70.75 69.77 69.35 69.57 69.66 69.91 70.64 69.86 69.84 69.27 69.11 68.81 69.39 69.71 69.26 69.05 69.01
61.27 62.69 60.66 53.16 51.60 55.12 55.48 57.93 58.82 59.11 58.55 55.51 54.91 54.68 57.98 60.86 61.85 64.30 68.53 69.12 66.78 67.55 70.12 72.46 74.15 73.83 73.51 73.38 73.48 73.03 72.64 71.95 71.12 70.27 70.20 70.08 70.33 70.53 70.37 70.29 70.10 69.86 69.62 69.62 69.87 69.56 70.11 69.75 69.80
64.39 62.49 53.28 51.66 51.74 54.99 57.81 59.74 59.05 57.40 57.01 56.51 54.66 53.89 56.56 60.22 63.34 64.87 68.36 68.98 67.47 67.53 69.13 71.78 74.18 74.02 73.83 73.88 73.66 73.13 72.76 72.44 72.19 71.22 70.99 71.37 70.95 70.66 70.37 70.10 69.85 69.73 69.57 69.56 69.45 69.53 70.39 69.45 70.27
58.19 59.60 51.06 47.83 49.63 53.72 56.39 58.61 57.94 56.30 56.05 56.38 54.16 54.15 56.97 61.06 62.81 65.35 68.43 69.39 69.48 68.49 69.31 71.58 73.92 74.12 73.72 73.75 73.48 73.18 72.95 72.80 72.75 72.31 72.22 71.90 71.11 70.42 70.03 69.56 69.29 69.24 69.25 69.28 69.20 68.64 69.78 69.67 69.56
56.00 55.15 49.21 49.19 48.75 51.00 53.41 57.74 55.88 56.10 55.41 55.91 56.63 53.81 58.28 60.45 62.81 65.62 68.11 69.66 68.98 69.89 69.85 71.46 73.07 73.78 73.94 73.62 73.23 73.19 73.13 73.03 73.03 72.69 72.45 71.28 70.32 69.49 67.82 67.31 67.29 67.56 67.62 68.06 68.32 68.33 69.07 68.88 68.51
58.42 56.61 49.93 50.60 48.57 49.48 54.10 55.49 56.19 56.09 55.81 57.82 58.27 55.01 57.05 61.03 62.90 66.60 68.05 68.36 67.94 68.94 70.09 70.90 72.82 72.92 72.68 72.90 73.64 73.38 73.45 73.16 72.94 72.35 70.92 69.97 67.95 66.82 66.59 66.84 65.95 65.98 66.55 67.01 67.42 67.80 68.02 68.49 68.61
57.75 52.08 48.64 49.24 48.98 51.69 54.80 54.44 56.56 58.33 57.56 58.01 58.10 59.16 60.45 61.64 62.28 64.77 66.46 66.75 67.23 67.33 68.84 70.08 71.05 72.01 72.28 72.21 72.40 73.40 73.07 72.65 71.90 70.15 69.27 68.46 67.25 67.36 66.74 65.83 65.61 65.50 65.44 65.90 66.57 67.06 67.23 67.76 68.15
55.66 51.39 50.63 53.75 53.99 53.02 54.20 54.64 55.55 55.62 56.22 56.63 57.96 60.32 60.26 60.95 61.47 62.20 64.29 64.63 65.83 66.72 67.57 68.82 70.15 71.12 71.64 71.30 72.46 72.42 71.61 70.61 69.65 69.11 68.27 67.92 68.14 67.40 65.96 65.49 65.22 65.18 65.50 66.10 66.63 66.81 67.01 66.76 67.67
55.00 51.30 54.51 55.01 55.72 55.34 54.72 54.80 56.93 55.07 53.77 56.50 56.47 58.78 60.86 61.45 61.26 61.54 63.06 64.66 65.09 67.07 68.06 68.46 69.94 71.29 71.21 70.71 71.04 70.71 69.52 69.00 68.95 68.30 68.02 67.69 66.78 66.61 65.62 65.17 65.57 65.81 64.55 64.64 65.06 65.48 65.30 65.43 67.20
51.48 54.60 55.35 55.77 56.63 55.69 54.45 56.34 54.24 56.25 56.55 59.41 59.63 60.50 60.45 60.57 60.85 60.87 61.94 64.03 65.32 65.99 67.35 69.05 69.61 70.00 70.88 70.18 69.45 68.46 67.92 67.30 66.54 66.87 67.62 66.99 65.91 66.14 65.38 64.41 64.98 65.07 64.81 65.11 65.51 65.69 65.90 66.35 66.92
52.24 53.74 55.50 56.53 56.61 56.42 56.68 54.51 54.59 55.42 57.56 59.34 59.88 60.18 60.19 60.78 60.98 61.72 62.19 63.67 65.07 64.84 66.20 68.11 69.21 69.46 69.54 68.77 67.69 66.85 66.72 66.28 66.58 66.29 66.23 65.79 65.39 65.32 65.01 64.78 64.80 65.01 64.94 65.12 64.89 64.96 65.15 65.47 66.45
52.84 53.41 53.78 55.29 55.39 55.63 53.94 53.68 54.92 55.67 58.52 58.27 58.77 58.85 59.59 60.15 60.28 60.89 61.41 61.85 63.35 64.39 64.47 66.53 67.65 69.22 68.03 66.98 66.91 66.05 66.10 66.17 66.37 65.96 65.74 65.75 65.13 65.03 64.72 64.68 64.69 64.88 65.13 64.65 64.62 64.31 64.41 64.67 65.83
52.83 50.03 52.31 52.70 53.67 53.21 52.79 48.84 49.91 55.14 56.46 55.73 56.57 57.98 58.73 59.38 59.85 59.63 61.86 62.77 63.75 63.62 63.34 64.27 67.10 67.23 66.79 66.46 66.16 65.78 65.67 65.79 65.54 65.78 66.42 65.80 65.95 65.70 65.56 65.14 64.61 64.75 65.11 64.68 64.48 64.37 64.56 64.39 65.09
46.86 47.35 43.42 48.74 49.89 50.45 49.74 45.41 51.67 54.68 54.90 55.10 56.09 56.90 56.87 58.65 59.98 61.15 62.10 63.22 63.68 63.04 61.05 63.63 64.48 65.35 65.81 65.52 65.32 65.07 65.26 65.35 65.55 65.90 66.05 66.24 66.25 66.36 66.06 64.82 64.49 65.18 64.36 63.82 63.73 63.58 62.90 63.42 63.85
44.59 41.29 42.25 45.01 49.54 49.15 49.84 47.21 51.27 54.13 53.72 53.46 54.65 55.62 56.37 57.74 59.73 61.88 61.73 62.44 62.74 61.47 61.82 62.71 64.10 64.24 64.47 65.16 64.93 65.05 65.61 65.28 65.58 65.90 65.99 66.34 65.97 65.98 65.46 64.84 64.66 65.23 63.63 63.16 63.44 63.06 62.74 62.09 62.99
40.55 40.15 42.55 42.70 47.21 47.47 47.12 47.30 50.71 52.24 52.55 53.21 54.28 55.43 56.39 56.84 58.23 61.26 61.22 61.32 60.72 60.78 63.16 63.85 63.62 64.35 64.54 64.55 64.09 64.42 64.71 65.17 65.94 65.89 65.97 66.28 66.01 65.74 65.58 64.85 64.23 64.11 62.45 62.65 62.88 63.12 62.83 62.70 63.51
44.91 44.15 43.64 46.53 47.47 46.07 45.88 46.43 49.03 51.93 52.60 52.86 53.62 54.75 56.49 57.80 59.88 58.79 58.46 59.15 59.88 60.91 61.84 62.71 63.23 63.97 63.73 62.66 62.25 63.12 63.57 64.95 65.26 65.99 66.52 66.32 66.40 66.06 66.02 63.55 62.97 62.17 61.62 63.07 63.62 62.73 62.09 61.64 63.48
42.55 42.25 42.93 45.54 46.60 46.21 46.15 45.96 49.79 51.24 51.83 52.78 53.67 54.95 56.04 57.49 58.54 58.21 57.18 58.12 59.93 60.34 61.63 62.49 63.42 63.72 63.68 63.73 64.15 65.22 65.59 65.93 65.75 66.38 66.33 66.40 66.47 66.58 65.48 64.47 62.88 63.22 62.82 62.93 62.78 62.15 60.73 61.99 63.13
41.73 40.76 41.58 42.14 45.27 47.10 46.09 44.37 46.65 50.16 52.65 53.41 54.13 55.56 56.67 56.82 57.79 57.81 56.28 57.61 59.54 60.13 61.22 62.31 63.37 63.72 64.25 64.78 64.37 64.86 65.48 65.13 64.90 65.45 65.90 66.14 65.66 65.31 65.37 64.78 64.63 64.43 63.69 62.91 62.71 61.84 61.62 59.54 61.50
39.33 44.53 43.39 42.64 41.75 38.71 46.14 38.25 45.59 48.39 49.19 51.37 53.24 55.20 56.46 57.22 57.10 57.44 56.95 57.50 59.25 60.33 62.03 63.52 63.66 64.07 64.47 64.97 64.61 64.79 64.41 63.68 64.47 64.96 65.27 65.46 64.50 64.65 65.07 64.93 64.92 64.79 63.69 63.19 62.25 62.49 62.10 62.16 60.14
42.13 45.69 44.37 43.77 42.21 42.25 42.64 39.80 43.54 48.06 46.90 49.43 51.96 54.93 57.05 55.91 56.70 57.28 57.19 58.09 59.62 60.89 61.90 63.11 64.04 64.29 64.59 64.70 64.92 64.75 65.03 64.61 65.03 64.86 63.95 64.78 65.30 64.77 64.19 64.44 64.60 64.48 63.52 63.74 62.97 62.80 62.74 62.59 62.74
46.82 45.29 45.07 45.07 43.24 36.14 41.28 40.57 40.50 44.45 47.25 49.74 53.58 55.40 54.97 55.22 56.17 56.78 57.93 59.04 59.79 61.63 62.26 63.11 63.63 64.04 64.17 64.37 64.66 65.44 64.52 63.44 63.24 63.57 63.66 64.04 64.34 64.82 64.39 63.93 64.39 64.34 64.04 63.83 63.37 63.64 63.60 63.43 64.47
46.00 43.11 36.17 34.18 34.36 34.44 43.16 40.50 41.27 48.56 49.86 50.69 52.56 55.51 55.30 55.91 56.08 56.26 57.27 58.25 59.57 60.66 61.95 62.83 63.49 62.70 63.82 63.85 64.27 64.77 63.84 63.23 62.65 62.97 63.56 63.16 62.94 63.35 64.12 64.30 64.37 64.70 64.62 64.77 64.45 64.05 63.89 63.89 63.86
43.46 43.00 37.10 30.51 32.57 36.75 42.26 37.30 41.20 50.24 52.07 52.65 54.23 55.59 55.28 56.03 56.55 56.84 57.80 58.86 59.84 60.95 62.08 62.64 62.94 62.59 63.30 63.96 64.68 64.56 64.20 63.73 63.41 63.39 63.88 63.61 63.40 63.56 64.56 64.31 64.78 65.22 64.69 64.79 64.53 64.27 64.08 64.17 64.30
43.53 40.61 45.49 40.22 40.87 38.85 40.69 43.68 47.93 51.09 51.63 53.03 53.47 53.17 54.82 55.88 56.63 56.76 57.95 59.40 60.28 61.10 62.21 62.90 62.83 62.92 63.54 63.48 64.21 64.17 64.51 62.85 63.54 63.42 63.84 63.56 63.90 63.78 64.13 64.17 64.97 64.94 65.19 64.72 65.03 64.38 64.30 63.77 64.34
45.13 46.93 38.63 40.53 32.76 31.28 38.06 39.84 43.20 47.86 50.10 52.89 53.54 53.68 54.42 55.96 56.32 56.87 57.82 59.32 60.53 61.63 62.65 63.24 62.87 62.51 63.29 62.86 64.27 64.17 64.17 63.19 63.62 63.65 63.03 63.52 64.02 64.20 64.05 63.69 64.83 64.81 64.98 64.29 63.65 62.79 63.65 64.03 64.71
41.58 42.03 42.50 42.93 40.04 34.73 34.22 38.77 50.37 50.95 52.75 53.70 55.06 54.74 55.05 56.02 56.37 57.03 58.18 59.35 60.27 61.60 61.76 62.09 61.78 61.73 61.65 62.53 64.05 64.58 64.37 64.00 63.74 63.45 63.20 63.51 64.08 64.11 63.49 63.65 63.81 64.33 64.22 62.66 63.30 62.80 62.89 62.95 63.61
44.49 42.94 43.18 37.72 35.55 40.00 38.91 39.41 50.65 52.44 53.26 53.81 54.29 54.27 55.57 56.85 57.23 57.72 58.23 59.03 59.66 60.46 61.34 61.49 61.67 61.84 61.91 63.40 63.37 64.02 64.87 64.55 63.80 63.23 63.43 63.69 63.73 64.02 63.77 63.74 63.41 63.69 63.57 62.71 61.84 62.17 62.42 62.50 62.26